Regional Weather Roundup
Issued by NWS

Home | Current Version | Previous Version | Text Only | Print | Product List | Glossary Off
Versions: 1 2 3 4 5 6 7 8 9 10 11 12 13 14 15 16 17 18 19 20 21 22 23 24 25 26 27 28 29 30 31 32 33 34 35 36 37 38 39 40 41 42 43 44 45 46 47 48 49 50

000
ASUS43 KBIS 300310
RWRND

NORTH DAKOTA REGIONAL WEATHER ROUNDUP
NATIONAL WEATHER SERVICE BISMARCK ND
1000 PM CDT SAT AUG 29 2015

NOTE: "FAIR" INDICATES FEW OR NO CLOUDS BELOW 12,000 FEET WITH NO
SIGNIFICANT WEATHER AND/OR OBSTRUCTIONS TO VISIBILITY.


NDZ001>003-009>011-017-300400-
NORTHWEST NORTH DAKOTA

CITY           SKY/WX    TMP DP  RH WIND       PRES   REMARKS
WILLISTON      CLOUDY    78  53  41 N6        29.76R HAZE
MINOT          CLOUDY    74  59  59 CALM      29.77S HAZE
MINOT AFB      MOCLDY    71  60  67 N5        29.77R
$$

NDZ018>021-031>035-040>046-300400-
SOUTHWEST NORTH DAKOTA

CITY           SKY/WX    TMP DP  RH WIND       PRES   REMARKS
BISMARCK       MOCLDY    74  61  63 S7        29.83R
DICKINSON      MOCLDY    75  49  39 S8        29.83R
GARRISON         N/A     77  62  59 S8        29.80R
HETTINGER ARPT MOCLDY    77  55  46 SE8       29.88R
$$

NDZ004>008-012>016-024-026-027-054-300400-
NORTHEAST NORTH DAKOTA

CITY           SKY/WX    TMP DP  RH WIND       PRES   REMARKS
GRAND FORKS    FAIR      72  68  87 S13       29.81F
GRND FRKS AFB  FAIR      71  68  90 S12       29.81F
DEVILS LAKE    PTCLDY    75  66  73 S14G20    29.81R
$$

NDZ022-023-025-028>030-036>039-047>053-300400-
SOUTHEAST NORTH DAKOTA

CITY           SKY/WX    TMP DP  RH WIND       PRES   REMARKS
FARGO          MOCLDY    73  65  75 S16G22    29.87S
JAMESTOWN      CLEAR     73  69  87 S12       29.86S
$$



USA.gov is the U.S. government's official web portal to all federal, state and local government web resources and services.